Location: Asheville, NC
(35.6000°N, 82.5500°W)
Time: 04:45:22
(UTC-04:00)

Vanguard 2 Rocket - Pass Details

Date: 18 February 2018
Orbit: 554 x 3327 km, 32.9° (Epoch: 20 May)

Event Time Altitude Azimuth Distance (km) Brightness Sun altitude
Rises 06:22:05 0° 285° (WNW) 7,226 - -11.1°
Reaches altitude 10° 06:27:20 10° 279° (W) 6,281 - -10.1°
Exits shadow 06:27:46 11° 279° (W) 6,203 10.4 -10.0°
Maximum altitude 06:45:00 40° 219° (SW) 3,936 9.9 -6.5°
Drops below altitude 10° 06:58:42 10° 156° (SSE) 4,892 11.2 -3.8°
Sets 07:02:14 0° 149° (SSE) 5,550 11.6 -3.1°
